This is the latest recevied weather packets stored in our database for station/object KN4CCE-13. If no packets are shown the sender has not sent any weather packets the latest 10 day(s).
| Time | Temp. | Humidity | Pressure | Rain* | Wind** | Luminosity | Snow |
|---|---|---|---|---|---|---|---|
| 1777617929 | 12.22° C | 62% | 1014.2 hPa | 0 mm | - | 0 W/m² | - |
| 1777608022 | 15° C | 56% | 1013.1 hPa | 0 mm | - | 0 W/m² | - |
| 1777606224 | 15° C | 58% | 1013 hPa | 0 mm | - | 0 W/m² | - |
| 1777604427 | 14.44° C | 60% | 1013 hPa | 0 mm | - | 0 W/m² | - |
| 1777595406 | 16.11° C | 74% | 1010.4 hPa | 0 mm | - | 0 W/m² | - |
| 1777594505 | 16.67° C | 73% | 1010.3 hPa | 0 mm | - | 0 W/m² | - |
| 1777589105 | 20° C | 63% | 1009.2 hPa | 0 mm | - | 47 W/m² | - |
| 1777586417 | 20.56° C | 59% | 1009 hPa | 0 mm | - | 62 W/m² | - |
| 1777578311 | 21.11° C | 60% | 1009.6 hPa | 0 mm | - | 243 W/m² | - |
| 1777576525 | 20.56° C | 66% | 1009.6 hPa | 0 mm | - | 218 W/m² | - |
| 1777573814 | 20.56° C | 59% | 1009.5 hPa | 0 mm | - | 1021 W/m² | - |
| 1777570217 | 19.44° C | 65% | 1009.8 hPa | 0 mm | - | 1107 W/m² | - |
| 1777565722 | 16.67° C | 87% | 1010.6 hPa | 0 mm | - | 547 W/m² | - |
| 1777557616 | 15° C | 97% | 1010.7 hPa | 0 mm | - | 163 W/m² | - |
| 1777554912 | 14.44° C | 98% | 1010.5 hPa | 0 mm | - | 102 W/m² | - |
| 1777554013 | 14.44° C | 98% | 1010.3 hPa | 0 mm | - | 105 W/m² | - |
| 1777548613 | 13.89° C | 97% | 1009.9 hPa | 0 mm | - | 28 W/m² | - |
| 1777539635 | 15° C | 97% | 1009.1 hPa | 0 mm | - | 0 W/m² | - |
| 1777534225 | 15.56° C | 97% | 1008.6 hPa | 0 mm | - | 0 W/m² | - |
| 1777533324 | 15.56° C | 97% | 1008.6 hPa | 0 mm | - | 0 W/m² | - |
| 1777519818 | 18.33° C | 91% | 1009.1 hPa | 8.38 mm | - | 0 W/m² | - |
| 1777516207 | 20° C | 82% | 1007.6 hPa | 0 mm | - | 0 W/m² | - |
| 1777507220 | 21.11° C | 79% | 1007.5 hPa | 0 mm | - | 0 W/m² | - |
| 1777500909 | 24.44° C | 67% | 1007.8 hPa | 0 mm | - | 26 W/m² | - |
| 1777500016 | 24.44° C | 67% | 1008 hPa | 0 mm | - | 81 W/m² | - |
* Rain latest hour (hover to see other rain measurements)
** Current wind speed in m/s (hover to see current wind gust speed)